GW6012 Weather Reports


time (UTC)temp
C
wind
direction
speed
KPH
gust
KPH
rain 1hr
cm
rain 24hr
cm
rain mn
cm
humidity
%
barometer
mb
20260506160030 16 194 0.0 4.8 0.00 0.00 0.00 65 1020.0
20260506155508 17 352 0.0 4.8 0.00 0.00 0.00 65 1019.9
20260506155009 17 9 1.6 4.8 0.00 0.00 0.00 65 1020.0
20260506154522 17 51 1.6 8.0 0.00 0.00 0.00 66 1019.9
20260506154010 16 46 0.0 8.0 0.00 0.00 0.00 66 1019.9
20260506153512 16 89 0.0 4.8 0.00 0.00 0.00 66 1020.0
20260506153024 16 27 1.6 6.4 0.00 0.00 0.00 68 1020.0
20260506152509 16 26 0.0 6.4 0.00 0.00 0.00 69 1020.0
20260506152011 16 61 1.6 4.8 0.00 0.00 0.00 70 1020.1
20260506151526 15 65 1.6 6.4 0.00 0.00 0.00 72 1020.1
20260506151010 15 348 1.6 8.0 0.00 0.00 0.00 73 1020.1
20260506150510 15 53 1.6 8.0 0.00 0.00 0.00 73 1020.1
20260506150027 14 32 1.6 8.0 0.00 0.00 0.00 73 1020.1
20260506145508 14 67 0.0 8.0 0.00 0.00 0.00 74 1020.1
20260506145010 13 66 1.6 8.0 0.00 0.00 0.00 75 1020.0
20260506144517 13 39 1.6 9.7 0.00 0.00 0.00 76 1020.0
20260506144008 13 34 1.6 9.7 0.00 0.00 0.00 77 1020.0
20260506143508 13 32 1.6 6.4 0.00 0.00 0.00 78 1019.9
20260506143029 13 29 1.6 6.4 0.00 0.00 0.00 79 1019.9
20260506142509 12 71 1.6 6.4 0.00 0.00 0.00 80 1019.9
20260506142004 12 31 1.6 6.4 0.00 0.00 0.00 81 1019.8
20260506141509 12 52 0.0 3.2 0.00 0.00 0.00 83 1019.8
20260506141009 11 65 0.0 3.2 0.00 0.00 0.00 83 1019.8
20260506140505 11 68 0.0 3.2 0.00 0.00 0.00 84 1019.7
20260506140010 11 77 1.6 3.2 0.00 0.00 0.00 84 1019.7
20260506135503 11 67 0.0 3.2 0.00 0.00 0.00 84 1019.7
20260506135006 10 93 0.0 3.2 0.00 0.00 0.00 85 1019.6
20260506134514 10 62 0.0 3.2 0.00 0.00 0.00 85 1019.7
20260506134011 10 78 0.0 3.2 0.00 0.00 0.00 85 1019.6
20260506133510 10 91 0.0 0.0 0.00 0.00 0.00 85 1019.6
20260506133020 10 91 0.0 0.0 0.00 0.00 0.00 85 1019.5
20260506132510 10 90 0.0 0.0 0.00 0.00 0.00 84 1019.5
20260506132005 10 90 0.0 0.0 0.00 0.00 0.00 84 1019.5
20260506131503 11 90 0.0 3.2 0.00 0.00 0.00 84 1019.5
20260506131005 11 91 0.0 3.2 0.00 0.00 0.00 84 1019.4
20260506130506 11 92 0.0 3.2 0.00 0.00 0.00 84 1019.4
20260506130013 11 92 0.0 4.8 0.00 0.00 0.00 84 1019.2
20260506125507 11 53 1.6 4.8 0.00 0.00 0.00 85 1019.2
20260506125008 10 63 0.0 0.0 0.00 0.00 0.00 85 1019.1
20260506124514 11 68 0.0 0.0 0.00 0.00 0.00 85 1019.1
20260506124008 11 57 0.0 0.0 0.00 0.00 0.00 85 1019.1
20260506123510 11 57 0.0 0.0 0.00 0.00 0.00 85 1019.1
20260506123023 11 57 0.0 0.0 0.00 0.00 0.00 84 1019.1
20260506122510 11 57 0.0 4.8 0.00 0.00 0.00 84 1019.0
20260506122012 11 57 0.0 4.8 0.00 0.00 0.00 84 1018.9
20260506121525 11 57 0.0 3.2 0.00 0.00 0.00 84 1018.8
20260506121004 11 52 0.0 3.2 0.00 0.00 0.00 84 1018.8
20260506120505 11 52 0.0 3.2 0.00 0.00 0.00 84 1018.7
20260506120009 11 48 0.0 3.2 0.00 0.00 0.00 85 1018.7
20260506115502 11 53 0.0 3.2 0.00 0.00 0.00 85 1018.7
20260506115009 11 67 0.0 3.2 0.00 0.00 0.00 84 1018.7
20260506114511 11 67 0.0 3.2 0.00 0.00 0.00 84 1018.7
20260506114011 11 82 0.0 3.2 0.00 0.00 0.00 85 1018.7
20260506113507 11 33 1.6 3.2 0.00 0.00 0.00 85 1018.7
20260506113026 11 26 0.0 3.2 0.00 0.00 0.00 85 1018.7
20260506112510 11 44 1.6 3.2 0.00 0.00 0.00 85 1018.7
20260506112013 11 49 1.6 3.2 0.00 0.00 0.00 85 1018.6
20260506111519 11 71 0.0 3.2 0.00 0.00 0.00 84 1018.7
20260506111013 11 46 0.0 4.8 0.00 0.00 0.00 85 1018.7
20260506110509 11 25 1.6 4.8 0.00 0.00 0.00 85 1018.7
20260506110008 11 32 0.0 4.8 0.00 0.00 0.00 85 1018.7
20260506105505 11 40 0.0 3.2 0.00 0.00 0.00 85 1018.7
20260506105007 11 44 0.0 4.8 0.00 0.00 0.00 85 1018.7
20260506104509 11 15 0.0 4.8 0.00 0.00 0.00 85 1018.7
20260506104006 11 11 0.0 3.2 0.00 0.00 0.00 85 1018.6
20260506103507 11 49 0.0 3.2 0.00 0.00 0.00 85 1018.5
20260506103014 11 28 0.0 3.2 0.00 0.00 0.00 85 1018.5
20260506102508 11 42 0.0 3.2 0.00 0.00 0.00 85 1018.4
20260506102011 11 34 1.6 4.8 0.00 0.00 0.00 85 1018.5
20260506101519 11 40 1.6 4.8 0.00 0.00 0.00 85 1018.5
20260506101007 11 24 0.0 4.8 0.00 0.00 0.00 86 1018.6
20260506100508 11 347 1.6 4.8 0.00 0.00 0.00 85 1018.5
20260506100027 11 60 1.6 4.8 0.00 0.00 0.00 85 1018.5
20260506095509 11 53 0.0 4.8 0.00 0.00 0.00 85 1018.5
20260506095006 11 36 0.0 4.8 0.00 0.00 0.00 85 1018.5
20260506094506 11 344 0.0 3.2 0.00 0.00 0.00 85 1018.5
20260506094005 11 85 0.0 3.2 0.00 0.00 0.00 84 1018.6
20260506093506 11 81 0.0 3.2 0.00 0.00 0.00 84 1018.7
20260506093011 12 79 0.0 3.2 0.00 0.00 0.00 84 1018.7
20260506092507 12 61 0.0 3.2 0.00 0.00 0.00 84 1018.7
20260506092010 12 64 0.0 3.2 0.00 0.00 0.00 84 1018.8
20260506091519 12 39 0.0 3.2 0.00 0.00 0.00 85 1018.7
20260506091009 12 55 0.0 3.2 0.00 0.00 0.00 85 1018.8
20260506090510 12 55 0.0 3.2 0.00 0.00 0.00 85 1018.8
20260506090035 12 46 0.0 3.2 0.00 0.00 0.00 85 1018.9
20260506085511 12 67 0.0 1.6 0.00 0.00 0.00 85 1018.8
20260506085009 11 67 0.0 1.6 0.00 0.00 0.00 84 1018.8
20260506084526 11 67 0.0 3.2 0.00 0.00 0.00 84 1018.9
20260506084009 12 67 0.0 3.2 0.00 0.00 0.00 83 1019.0
20260506083506 12 67 0.0 3.2 0.00 0.00 0.00 83 1018.9
20260506083011 12 53 0.0 3.2 0.00 0.00 0.00 84 1018.9
20260506082506 12 53 0.0 3.2 0.00 0.00 0.00 83 1018.8
20260506082007 12 29 0.0 3.2 0.00 0.00 0.00 83 1018.9
20260506081518 12 28 0.0 4.8 0.00 0.00 0.00 83 1018.9
20260506081008 12 49 1.6 4.8 0.00 0.00 0.00 83 1018.9
20260506080509 12 46 0.0 4.8 0.00 0.00 0.00 83 1019.1
20260506073511 12 43 1.6 4.8 0.00 0.00 0.00 84 1018.8
20260506073028 12 42 1.6 4.8 0.00 0.00 0.00 84 1018.8
20260506072511 12 52 1.6 3.2 0.00 0.00 0.00 84 1018.7
20260506072008 12 51 1.6 3.2 0.00 0.00 0.00 84 1018.8
20260506071511 12 50 1.6 3.2 0.00 0.00 0.00 84 1018.7
20260506071007 12 36 0.0 3.2 0.00 0.00 0.00 84 1018.7
20260506070506 12 60 0.0 3.2 0.00 0.00 0.00 84 1018.6
20260506062511 12 57 0.0 3.2 0.00 0.00 0.00 83 1018.1
20260506062013 12 57 0.0 3.2 0.00 0.00 0.00 83 1018.2
20260506061520 13 57 0.0 3.2 0.00 0.00 0.00 83 1018.2
20260506061009 13 62 0.0 3.2 0.00 0.00 0.00 83 1018.1
20260506060507 13 62 0.0 3.2 0.00 0.00 0.00 82 1018.1
20260506051005 13 57 0.0 3.2 0.00 0.00 0.00 82 1017.9
20260506050511 13 98 0.0 3.2 0.00 0.00 0.00 82 1017.8
20260506045002 13 76 0.0 3.2 0.00 0.00 0.00 82 1017.7
20260506044506 13 88 0.0 3.2 0.00 0.00 0.00 82 1017.6
20260506044003 13 81 0.0 3.2 0.00 0.00 0.00 82 1017.6
20260506043503 13 71 0.0 3.2 0.00 0.00 0.00 82 1017.5
20260506043006 13 105 0.0 4.8 0.00 0.00 0.00 82 1017.4
20260506042505 14 92 0.0 4.8 0.00 0.00 0.00 81 1017.4
20260506042006 14 53 0.0 4.8 0.00 0.00 0.00 81 1017.3
20260506041509 14 84 1.6 4.8 0.00 0.00 0.00 80 1017.3
20260506041007 14 67 1.6 3.2 0.00 0.00 0.00 80 1017.2
20260506040505 14 86 1.6 4.8 0.00 0.00 0.00 80 1017.1
20260506040013 14 74 1.6 4.8 0.00 0.00 0.00 80 1017.0
20260506035507 14 78 1.6 6.4 0.00 0.00 0.00 79 1016.9
20260506035011 15 93 0.0 4.8 0.00 0.00 0.00 78 1016.8
20260506034517 15 146 0.0 3.2 0.00 0.00 0.00 78 1016.7
20260506034004 15 227 0.0 3.2 0.00 0.00 0.00 77 1016.6
20260506033503 15 227 0.0 3.2 0.00 0.00 0.00 77 1016.6
20260506033005 15 229 0.0 3.2 0.00 0.00 0.00 76 1016.5
20260506032503 15 211 0.0 3.2 0.00 0.00 0.00 75 1016.4
20260506032008 15 224 1.6 3.2 0.00 0.00 0.00 75 1016.3
20260506031508 15 173 0.0 3.2 0.00 0.00 0.00 75 1016.3
20260506031009 15 220 1.6 3.2 0.00 0.00 0.00 74 1016.1
20260506030506 15 223 1.6 3.2 0.00 0.00 0.00 74 1016.1
20260506030015 16 215 0.0 3.2 0.00 0.00 0.00 73 1016.1
20260506025506 16 207 1.6 4.8 0.00 0.00 0.00 72 1016.0
20260506025011 16 219 0.0 4.8 0.00 0.00 0.00 72 1015.8
20260506024537 16 125 0.0 3.2 0.00 0.00 0.00 71 1015.7
20260506024012 16 202 0.0 3.2 0.00 0.00 0.00 71 1015.6
20260506023508 16 219 1.6 4.8 0.00 0.00 0.00 70 1015.6
20260506023004 16 215 1.6 4.8 0.00 0.00 0.00 69 1015.5
20260506022503 16 157 1.6 4.8 0.00 0.00 0.00 69 1015.4
20260506022004 17 195 0.0 4.8 0.00 0.00 0.00 70 1015.4
20260506021507 17 219 1.6 3.2 0.00 0.00 0.00 69 1015.3
20260506021004 17 209 0.0 3.2 0.00 0.00 0.00 69 1015.3
20260506020504 17 194 0.0 4.8 0.00 0.00 0.00 69 1015.3
20260506020009 17 216 0.0 6.4 0.00 0.00 0.00 69 1015.3
20260506015508 17 230 3.2 6.4 0.00 0.00 0.00 69 1015.2
20260506015008 17 209 1.6 6.4 0.00 0.00 0.00 68 1015.2
20260506014514 17 220 1.6 6.4 0.00 0.00 0.00 69 1015.2
20260506014010 17 215 1.6 6.4 0.00 0.00 0.00 69 1015.2
20260506013509 17 192 3.2 6.4 0.00 0.00 0.00 69 1015.1
20260506013021 17 134 1.6 6.4 0.00 0.00 0.00 69 1015.1
20260506012507 17 225 3.2 8.0 0.00 0.00 0.00 69 1015.2
20260506012003 17 184 1.6 8.0 0.00 0.00 0.00 69 1015.3
20260506011506 17 229 3.2 8.0 0.00 0.00 0.00 1015.2
20260506011006 17 208 3.2 8.0 0.00 0.00 0.00 1015.2
20260506010502 17 191 3.2 8.0 0.00 0.00 0.00 1015.1
20260506010008 17 224 3.2 8.0 0.00 0.00 0.00 1015.1
20260506005505 17 204 1.6 9.7 0.00 0.00 0.00 68 1015.2
20260506005007 17 200 3.2 9.7 0.00 0.00 0.00 68 1015.1
20260506004512 17 215 3.2 11.3 0.00 0.00 0.00 67 1015.1
20260506004005 17 224 3.2 11.3 0.00 0.00 0.00 68 1015.1
20260506003509 17 211 3.2 8.0 0.00 0.00 0.00 69 1015.1
20260506003020 17 212 4.8 12.9 0.00 0.00 0.00 68 1015.1
20260506002511 17 212 4.8 12.9 0.00 0.00 0.00 68 1015.1
20260506002010 17 213 3.2 11.3 0.00 0.00 0.00 68 1015.1
20260506001524 17 213 4.8 11.3 0.00 0.00 0.00 68 1015.1
20260506001003 17 207 3.2 11.3 0.00 0.00 0.00 67 1015.1
20260506000506 18 207 4.8 12.9 0.00 0.00 0.00 67 1015.1
20260506000008 18 211 4.8 14.5 0.00 0.00 0.00 66 1015.0
20260505235505 18 296 4.8 14.5 0.00 0.00 0.00 64 1015.0
20260505235005 19 200 6.4 14.5 0.00 0.00 0.00 63 1014.9
20260505234512 19 207 6.4 14.5 0.00 0.00 0.00 64 1014.9
20260505234006 19 240 8.0 14.5 0.00 0.00 0.00 62 1014.9
20260505233507 20 232 4.8 11.3 0.00 0.00 0.00 62 1014.9
20260505233015 20 284 1.6 11.3 0.00 0.00 0.00 64 1014.9
20260505232512 18 215 4.8 11.3 0.00 0.00 0.00 64 1014.9
20260505232006 18 352 3.2 11.3 0.00 0.00 0.00 62 1014.9
20260505231524 19 29 3.2 14.5 0.00 0.00 0.00 62 1014.8
20260505231012 18 212 6.4 17.7 0.00 0.00 0.00 62 1014.8
20260505230509 19 238 6.4 17.7 0.00 0.00 0.00 61 1014.8
20260505230007 20 290 4.8 17.7 0.00 0.00 0.00 60 1014.9
20260505225504 20 246 4.8 17.7 0.00 0.00 0.00 59 1014.9
20260505225007 20 181 6.4 12.9 0.00 0.00 0.00 58 1014.9
20260505224510 20 304 6.4 14.5 0.00 0.00 0.00 59 1015.0
20260505224007 20 263 6.4 20.9 0.00 0.00 0.00 59 1015.1
20260505223510 20 273 8.0 20.9 0.00 0.00 0.00 61 1015.1
20260505223019 20 98 4.8 17.7 0.00 0.00 0.00 62 1015.2
20260505222509 19 232 6.4 16.1 0.00 0.00 0.00 63 1015.3
20260505222009 19 286 4.8 16.1 0.00 0.00 0.00 63 1015.3
20260505221523 20 227 6.4 16.1 0.00 0.00 0.00 62 1015.3
20260505221010 19 229 6.4 19.3 0.00 0.00 0.00 61 1015.3
20260505220509 19 203 9.7 19.3 0.00 0.00 0.00 61 1015.4
20260505220025 18 219 6.4 16.1 0.00 0.00 0.00 60 1015.4
20260505215509 19 190 6.4 17.7 0.00 0.00 0.00 60 1015.6
20260505215003 19 268 6.4 17.7 0.00 0.00 0.00 61 1015.6
20260505214508 20 269 6.4 17.7 0.00 0.00 0.00 57 1015.6
20260505214007 21 222 4.8 17.7 0.00 0.00 0.00 57 1015.7
20260505213507 20 223 8.0 17.7 0.00 0.00 0.00 55 1015.8
20260505213018 20 198 6.4 17.7 0.00 0.00 0.00 55 1015.9
20260505212507 20 217 6.4 17.7 0.00 0.00 0.00 56 1015.9
20260505212011 19 205 6.4 16.1 0.00 0.00 0.00 59 1015.9
20260505211521 20 218 4.8 14.5 0.00 0.00 0.00 56 1016.0
20260505211009 20 262 4.8 14.5 0.00 0.00 0.00 60 1016.0
20260505210510 19 238 4.8 16.1 0.00 0.00 0.00 60 1016.0
20260505210024 19 271 4.8 16.1 0.00 0.00 0.00 59 1016.0
20260505205513 19 220 4.8 14.5 0.00 0.00 0.00 57 1016.0
20260505205014 19 282 4.8 17.7 0.00 0.00 0.00 55 1016.0
20260505204527 20 207 6.4 19.3 0.00 0.00 0.00 56 1016.0
20260505204008 20 196 4.8 19.3 0.00 0.00 0.00 54 1015.9
20260505203504 20 202 4.8 19.3 0.00 0.00 0.00 57 1016.0
20260505203013 19 284 6.4 19.3 0.00 0.00 0.00 58 1016.1
20260505202507 18 211 6.4 14.5 0.00 0.00 0.00 58 1016.0
20260505202008 18 250 4.8 24.1 0.00 0.00 0.00 58 1016.1
20260505201517 19 295 6.4 24.1 0.00 0.00 0.00 57 1016.0
20260505201008 19 294 4.8 17.7 0.00 0.00 0.00 57 1016.0
20260505200509 19 185 6.4 12.9 0.00 0.00 0.00 55 1016.1
20260505200022 20 170 4.8 22.5 0.00 0.00 0.00 54 1016.1
20260505195505 20 227 8.0 20.9 0.00 0.00 0.00 54 1016.0
20260505195003 20 360 3.2 19.3 0.00 0.00 0.00 56 1016.0
20260505194506 20 223 3.2 12.9 0.00 0.00 0.00 54 1016.1
20260505194007 20 239 4.8 12.9 0.00 0.00 0.00 56 1016.1
20260505193508 20 207 6.4 17.7 0.00 0.00 0.00 55 1016.1
20260505193013 20 215 6.4 17.7 0.00 0.00 0.00 56 1016.1
20260505192511 19 205 3.2 12.9 0.00 0.00 0.00 56 1016.1
20260505192009 19 230 3.2 12.9 0.00 0.00 0.00 57 1016.2
20260505191519 18 221 4.8 11.3 0.00 0.00 0.00 56 1016.2
20260505191008 19 219 3.2 12.9 0.00 0.00 0.00 54 1016.2
20260505190507 19 218 3.2 12.9 0.00 0.00 0.00 54 1016.2
20260505190027 20 221 4.8 12.9 0.00 0.00 0.00 54 1016.1
20260505185512 19 222 4.8 12.9 0.00 0.00 0.00 55 1016.1
20260505185010 19 211 6.4 16.1 0.00 0.00 0.00 56 1016.1
20260505184510 19 204 8.0 16.1 0.00 0.00 0.00 56 1016.1
20260505184004 19 211 4.8 11.3 0.00 0.00 0.00 56 1016.1
20260505183503 19 251 6.4 11.3 0.00 0.00 0.00 54 1016.0
20260505183010 19 215 4.8 12.9 0.00 0.00 0.00 54 1016.0
20260505182507 20 246 6.4 12.9 0.00 0.00 0.00 52 1015.9
20260505182009 20 240 3.2 9.7 0.00 0.00 0.00 52 1015.9
20260505181513 20 9 4.8 12.9 0.00 0.00 0.00 52 1015.8
20260505181009 19 205 6.4 12.9 0.00 0.00 0.00 54 1015.9
20260505180508 19 224 4.8 12.9 0.00 0.00 0.00 55 1016.0
20260505180022 19 192 4.8 12.9 0.00 0.00 0.00 53 1015.9
20260505175510 19 209 4.8 12.9 0.00 0.00 0.00 55 1015.8
20260505175010 19 223 1.6 9.7 0.00 0.00 0.00 54 1015.9
20260505174524 19 186 1.6 9.7 0.00 0.00 0.00 56 1015.9
20260505174013 18 250 3.2 9.7 0.00 0.00 0.00 57 1015.8
20260505173509 18 227 3.2 9.7 0.00 0.00 0.00 58 1015.8
20260505173010 18 213 1.6 8.0 0.00 0.00 0.00 59 1015.9
20260505172507 18 196 3.2 8.0 0.00 0.00 0.00 60 1015.8
20260505172008 17 18 1.6 4.8 0.00 0.00 0.00 61 1015.8
20260505171512 17 111 1.6 4.8 0.00 0.00 0.00 62 1015.7
20260505171006 17 114 1.6 6.4 0.00 0.00 0.00 63 1015.7
20260505170509 17 300 1.6 6.4 0.00 0.00 0.00 64 1015.6
20260505170020 17 173 3.2 6.4 0.00 0.00 0.00 65 1015.7
20260505165509 17 264 1.6 3.2 0.00 0.00 0.00 64 1015.7
20260505165010 17 317 1.6 9.7 0.00 0.00 0.00 66 1015.6
20260505164526 17 166 1.6 9.7 0.00 0.00 0.00 65 1015.6
20260505164014 17 194 3.2 9.7 0.00 0.00 0.00 70 1015.5
20260505163510 17 229 1.6 6.4 0.00 0.00 0.00 69 1015.5
20260505163028 16 211 3.2 6.4 0.00 0.00 0.00 69 1015.5
20260505162505 16 223 3.2 4.8 0.00 0.00 0.00 71 1015.5
20260505162007 15 84 0.0 4.8 0.00 0.00 0.00 72 1015.5
20260505161510 15 138 1.6 6.4 0.00 0.00 0.00 73 1015.5
20260505161007 15 211 1.6 6.4 0.00 0.00 0.00 71 1015.4
20260505160509 16 222 0.0 4.8 0.00 0.00 0.00 72 1015.4